Theta_e
342 346 352 351 353 354 354 353 353 352 352 351 349 350 351 352 352 351 351 351 350 350 350 349 348 348 348 348 349 350 350 349 348 348 351 351 351 350 351 350 349 349 349 348 347 347 346 346 345 345 343 341 341 342 344 345 345 347 348 348 348 349 349 349 348 348 349 347 347 348 347 347 348 348 348 348 350 351 350 351 351 348 349 350 352
342 349 353 354 352 354 354 353 353 352 352 352 351 351 351 351 352 351 351 351 350 350 349 350 350 350 350 349 349 349 349 349 349 349 349 349 350 350 350 350 349 348 347 346 346 346 346 345 344 343 342 340 338 337 339 342 342 343 345 347 347 348 348 347 347 348 347 348 347 346 347 346 347 347 348 348 349 349 349 349 349 348 348 349 351
344 347 352 353 351 354 353 353 353 353 353 352 351 351 351 350 351 351 351 350 350 349 349 348 349 349 348 349 349 349 349 349 348 348 348 348 348 349 350 349 348 348 348 347 347 346 345 344 343 341 341 340 338 336 335 338 340 341 342 344 346 347 347 347 346 347 346 347 346 346 346 347 347 347 347 348 348 348 347 348 349 348 348 350 350
345 347 352 351 348 352 354 353 353 352 352 352 351 350 351 350 351 351 350 350 349 348 348 348 347 347 347 348 348 348 348 348 348 348 347 348 348 349 349 348 348 348 348 347 347 345 342 341 340 339 337 337 337 336 335 335 338 340 341 342 344 346 347 346 346 346 345 345 347 347 344 345 345 347 348 348 347 346 345 346 347 348 349 349 348
346 347 352 352 353 351 353 353 352 352 352 352 351 351 351 351 351 351 350 349 349 348 348 347 347 347 347 347 348 348 348 347 347 347 346 347 348 348 348 348 348 348 348 348 346 343 341 341 340 338 335 334 335 336 336 336 336 338 340 342 343 344 346 346 346 343 343 345 347 346 343 344 345 346 346 347 347 346 345 345 344 346 346 347 348
346 348 350 350 352 354 350 353 353 352 352 352 352 351 351 351 350 350 350 349 349 348 348 347 347 346 347 347 347 346 346 347 346 345 346 346 347 347 348 348 347 348 347 347 346 343 341 341 340 338 335 333 333 334 336 336 336 337 339 342 343 343 345 345 344 342 344 344 343 342 343 345 346 345 346 347 346 345 345 345 345 344 344 345 346
345 348 347 349 351 351 347 352 353 353 352 352 351 351 351 350 350 350 349 349 348 348 347 347 346 346 346 346 345 346 346 346 345 345 345 346 346 347 347 347 347 347 346 346 346 343 342 341 340 337 334 332 332 334 335 336 337 337 338 341 341 342 344 344 343 343 344 344 342 342 342 344 343 345 345 346 346 345 345 345 345 344 344 344 344
347 348 348 349 350 348 347 353 353 353 353 352 351 351 351 350 350 350 350 349 349 348 347 347 346 345 345 345 345 346 345 345 345 345 346 346 345 346 346 346 346 345 345 345 344 343 341 340 339 335 333 331 332 333 333 334 336 336 338 339 340 340 341 342 343 343 343 341 342 342 342 344 344 344 344 344 344 345 345 344 345 344 344 343 343
346 347 348 347 351 345 348 352 353 353 353 352 352 351 351 350 350 350 350 349 348 348 348 347 346 345 345 344 345 345 345 345 346 346 345 345 345 346 347 346 345 344 343 343 342 342 341 340 338 335 333 330 330 331 332 333 335 336 337 337 338 338 339 340 340 341 343 341 341 340 341 342 343 344 344 344 345 345 346 344 342 342 343 342 343
343 347 347 347 353 343 350 351 353 353 353 352 352 352 351 350 350 350 350 349 348 348 348 347 346 345 345 345 345 345 345 346 346 345 345 345 345 346 346 345 344 343 343 343 344 342 341 340 336 334 333 330 328 329 332 332 334 335 336 336 337 336 339 339 341 340 340 339 340 339 341 345 343 344 343 344 343 344 344 343 343 342 342 344 342
342 346 347 346 352 342 350 352 352 352 351 351 351 351 350 350 350 350 350 349 349 348 348 347 346 345 345 345 345 345 345 346 346 345 344 344 344 345 345 345 343 343 342 342 342 342 341 339 336 335 333 330 328 328 331 331 332 334 335 335 335 336 337 338 337 338 339 339 339 339 340 344 342 342 345 344 343 344 343 343 342 342 343 342 342
341 346 347 350 344 342 349 350 352 353 351 351 352 350 350 350 350 350 350 349 349 348 348 347 346 345 344 345 345 346 345 346 345 344 344 344 344 345 345 343 343 342 341 341 341 342 340 338 336 335 333 330 327 328 329 330 331 332 334 335 336 335 335 335 337 336 338 337 336 338 338 337 340 342 344 343 344 344 342 342 343 343 344 343 342
342 342 346 349 353 338 345 347 349 352 352 351 351 351 350 349 350 349 348 349 349 348 347 348 347 346 345 345 345 346 346 346 345 345 344 344 344 345 344 343 343 341 340 340 340 340 340 338 337 335 332 330 327 327 327 329 330 331 332 333 334 334 333 332 335 335 335 336 336 338 338 339 339 342 341 342 343 342 341 340 342 344 343 342 341
341 343 344 344 349 341 337 343 348 351 352 351 351 350 349 348 348 349 349 348 348 348 347 347 347 346 346 346 346 345 346 346 345 345 344 344 345 345 344 343 342 340 339 338 339 339 339 337 336 334 331 329 327 326 327 328 330 330 331 331 331 331 330 332 333 335 335 334 336 337 337 337 339 340 338 340 341 340 339 339 340 342 341 341 341
340 342 343 343 348 349 336 335 341 344 348 349 350 350 349 348 348 347 347 348 348 348 347 347 347 347 346 346 346 346 346 346 345 344 344 344 343 342 343 342 340 339 339 340 340 339 337 336 335 333 330 328 327 326 326 327 328 329 329 329 329 329 328 332 334 333 334 334 334 336 337 337 342 338 338 339 339 338 337 337 337 338 339 339 339
339 340 341 342 346 346 348 340 333 335 341 345 347 347 348 349 348 347 347 346 347 348 347 346 347 347 346 345 345 345 346 345 344 345 344 343 342 342 343 341 340 340 340 339 338 336 336 335 333 331 329 327 326 324 324 325 326 327 327 327 326 327 327 325 333 333 332 332 334 335 336 337 340 338 338 337 337 337 336 336 335 335 335 337 337
338 340 340 341 343 344 344 347 343 330 333 337 340 343 345 347 348 348 346 347 345 346 346 347 347 346 344 345 346 345 344 345 343 343 343 343 342 341 341 341 340 340 340 340 338 337 336 334 332 330 329 327 326 324 323 324 324 325 325 324 324 325 325 323 332 332 331 331 334 334 335 335 338 338 336 338 336 336 335 335 334 333 332 333 333
335 336 334 336 338 342 343 346 348 348 347 341 335 337 341 344 345 345 346 345 346 346 348 347 347 346 345 342 341 340 342 345 344 343 341 342 342 341 340 341 340 340 338 337 337 336 334 333 331 330 329 327 326 323 321 321 322 323 322 322 322 323 324 322 327 329 329 331 332 333 332 334 337 337 338 336 335 335 334 333 333 332 332 331 331
327 328 330 332 333 335 339 343 344 346 346 346 347 348 334 340 342 342 342 342 344 345 345 343 342 341 338 338 336 336 336 337 340 341 340 338 337 339 341 340 340 339 339 337 337 336 334 332 331 329 328 326 324 321 319 319 319 319 319 320 321 321 319 324 323 324 327 327 330 330 330 333 336 336 336 336 335 335 335 334 333 331 331 329 330
320 321 321 325 330 332 334 336 341 343 345 345 345 347 336 332 338 338 338 339 339 341 341 338 335 331 332 332 330 334 331 337 327 337 335 336 333 336 338 339 338 339 338 338 337 335 334 332 330 329 327 325 322 318 317 317 316 316 317 318 320 318 321 318 321 319 322 323 328 326 327 332 335 335 335 334 334 333 331 329 329 330 330 328 328
318 319 319 319 322 327 330 332 335 337 342 345 345 346 349 331 334 333 332 335 336 337 337 329 324 324 327 325 327 346 345 343 341 342 328 342 328 325 337 338 338 338 339 338 336 335 333 332 330 328 326 323 319 318 317 314 312 313 314 318 314 321 316 316 317 316 319 321 325 321 325 329 334 334 333 333 332 332 328 328 329 330 329 327 327
316 317 318 318 319 320 324 329 332 336 337 342 345 345 349 341 346 346 346 340 333 330 338 345 338 345 329 338 344 343 342 342 342 338 342 341 333 324 328 335 338 336 337 337 336 335 334 332 330 328 326 323 320 320 316 314 313 313 315 312 320 313 314 314 314 314 312 316 315 315 321 326 330 333 332 331 330 330 328 327 328 328 327 328 328
314 316 317 317 319 320 321 320 325 330 333 338 342 344 344 345 346 345 345 336 341 344 345 344 345 344 344 345 340 342 341 341 345 341 341 330 337 321 325 331 335 334 335 336 336 335 334 332 330 327 326 323 328 326 321 321 318 309 310 316 310 312 313 312 312 312 312 310 307 316 317 322 326 330 332 332 330 329 328 327 328 328 328 327 328
313 315 317 318 319 320 321 322 321 325 331 335 340 342 342 344 343 345 344 344 345 345 345 344 343 344 344 344 343 341 342 341 328 325 334 341 330 321 324 327 329 329 328 332 332 335 333 332 329 327 325 327 327 324 320 317 316 314 312 309 310 311 312 311 311 312 312 312 309 315 316 317 320 323 327 331 331 329 327 327 326 328 328 328 328
314 316 317 316 318 319 320 322 323 323 329 334 338 340 342 342 342 343 342 342 345 344 343 343 344 344 345 343 343 342 342 341 342 342 341 339 340 339 337 337 336 337 325 336 334 335 332 331 329 326 329 328 326 324 324 321 319 318 314 310 309 311 311 312 311 310 313 312 309 313 316 316 315 317 320 324 329 330 329 327 327 326 327 327 327
314 314 314 316 318 319 320 320 322 323 324 333 337 339 340 341 341 341 340 341 343 343 344 343 343 341 342 341 341 342 339 340 340 341 339 339 338 337 338 338 337 336 333 336 336 334 335 333 332 333 328 328 326 324 322 321 321 318 316 314 311 310 311 310 310 312 312 311 309 310 313 315 315 316 316 317 322 326 330 330 331 326 326 328 327
313 312 314 316 318 319 319 321 323 323 324 331 337 339 340 340 341 342 341 341 341 340 341 342 341 341 342 342 341 339 340 340 338 339 341 340 339 338 336 336 336 336 336 336 335 335 335 332 332 330 327 327 325 323 321 320 320 319 318 316 315 313 311 311 310 310 312 312 310 309 311 314 314 314 315 316 317 320 325 330 331 330 326 327 327
312 312 314 316 317 316 317 323 323 322 324 331 336 337 338 339 341 339 339 337 337 338 339 339 340 340 338 339 338 342 339 339 339 339 339 338 338 338 337 336 336 336 336 335 335 335 334 332 332 328 327 326 325 323 322 322 321 321 319 318 317 316 314 311 310 311 312 313 313 309 312 313 314 314 315 316 318 319 321 327 331 330 333 335 335
310 312 314 316 315 315 316 322 323 321 327 332 334 335 338 338 339 338 337 333 335 333 332 333 334 335 336 337 337 336 338 339 337 339 339 336 337 336 336 335 334 334 334 333 333 332 332 331 329 328 329 327 326 324 323 323 321 320 319 318 318 315 314 314 313 312 313 313 315 309 311 310 312 314 315 315 317 318 320 321 328 330 332 333 334
309 312 313 312 312 314 320 322 324 330 330 332 334 334 336 335 332 329 330 331 330 329 328 328 329 330 331 332 333 334 335 337 336 337 336 332 332 332 332 332 333 334 333 332 331 330 330 328 328 328 326 326 325 324 323 323 321 320 320 319 317 315 316 315 315 314 314 314 314 312 307 310 309 311 312 315 316 317 317 319 322 327 331 331 332
309 310 309 310 310 314 320 322 325 328 331 331 329 326 327 329 327 326 326 328 329 328 326 325 325 325 327 329 330 330 331 332 335 334 333 332 331 331 330 330 329 329 328 329 328 328 328 326 324 324 324 323 321 323 323 323 322 320 319 318 317 317 316 317 316 315 314 314 314 313 316 309 310 310 311 311 313 315 316 318 320 323 325 326 330
309 308 308 309 311 313 319 320 323 323 325 325 323 322 321 323 324 321 321 323 325 325 324 323 322 322 325 326 327 327 328 328 328 329 330 329 329 328 326 326 325 325 324 325 325 324 323 321 320 320 321 321 320 321 323 323 322 320 319 318 317 317 317 317 316 314 312 313 313 313 312 310 310 311 311 311 311 312 313 315 317 319 321 323 325
308 307 307 308 310 312 316 317 319 320 319 319 319 318 316 318 319 317 318 321 321 320 319 319 319 319 321 323 324 325 325 325 326 326 325 327 326 325 324 323 322 322 322 322 323 324 323 321 319 320 321 321 321 321 323 323 322 320 319 318 318 318 317 317 315 313 311 312 310 309 311 310 309 309 310 311 311 311 311 311 313 314 317 318 319
306 308 307 308 310 312 314 314 314 313 313 313 314 314 313 313 315 314 313 314 315 315 315 316 315 316 316 317 320 322 323 323 323 323 323 322 321 320 320 320 320 320 321 322 321 322 322 320 320 321 317 320 318 317 318 320 321 321 320 319 318 317 317 316 314 312 312 310 309 309 308 308 307 308 308 311 311 311 310 310 310 311 313 313 314
306 306 306 307 309 310 311 310 310 311 311 310 310 309 309 310 310 310 311 311 310 310 311 312 312 312 314 314 315 317 321 322 322 321 321 321 319 318 317 318 320 321 321 321 320 320 319 318 319 320 318 317 317 314 314 316 318 319 319 318 317 317 317 315 314 313 310 309 309 308 308 307 306 306 306 307 308 310 310 309 310 310 310 311 312
304 305 306 307 308 309 310 309 308 308 307 307 306 306 306 306 306 306 307 308 307 306 306 308 309 309 310 311 312 314 316 318 320 321 319 320 318 316 316 317 318 318 319 319 320 317 315 314 314 317 318 315 314 312 311 309 310 313 315 316 315 314 314 313 312 310 309 309 307 307 306 305 305 305 305 305 305 308 308 310 309 310 310 310 311
303 303 304 307 307 307 308 308 307 306 305 305 305 305 304 304 303 304 304 304 304 304 304 305 306 307 307 307 309 310 312 314 315 316 316 316 315 315 315 315 315 314 315 315 316 317 315 312 311 313 314 310 308 307 307 308 308 310 313 315 315 314 313 311 309 308 309 307 306 306 305 305 305 304 304 304 304 304 306 308 308 309 309 309 308
303 303 304 306 306 306 307 307 307 306 305 305 304 304 304 304 303 303 302 302 302 303 303 303 303 305 306 306 307 307 309 310 312 313 313 312 312 312 312 311 311 311 310 310 309 310 311 310 305 305 306 306 304 304 305 306 308 309 311 314 314 312 312 309 307 305 306 307 306 305 304 304 304 305 304 304 304 304 305 305 306 307 308 309 306
302 303 304 306 307 307 307 307 307 306 306 305 305 304 304 303 303 303 302 301 301 301 302 302 302 303 303 305 305 305 306 308 309 310 310 310 310 309 309 310 310 310 309 309 309 310 310 310 308 305 305 305 304 305 305 306 308 310 311 311 312 311 309 306 306 307 307 307 304 305 306 304 305 305 305 305 305 305 305 305 304 304 305 308 305
302 303 304 306 306 307 307 307 307 308 309 308 308 306 305 304 302 302 301 300 300 300 300 300 301 301 302 303 304 304 304 305 306 307 307 308 308 307 307 308 308 308 307 307 307 308 309 308 308 307 306 305 305 305 305 305 307 309 309 310 311 309 306 306 307 306 306 305 305 304 303 304 304 304 304 305 305 305 304 304 303 303 304 305 307
301 303 304 304 306 307 307 306 307 308 309 309 308 307 304 303 302 301 299 299 299 299 299 299 299 299 300 301 301 302 303 303 304 305 305 304 305 305 305 305 306 305 305 304 305 306 307 309 307 307 305 303 303 304 304 305 306 305 307 308 308 306 305 306 304 304 304 305 304 303 304 302 300 301 302 303 303 303 303 302 301 302 302 303 303
300 301 302 303 304 305 306 305 306 306 306 307 307 306 306 304 302 300 299 299 299 298 297 297 298 298 298 299 299 300 300 301 301 303 303 303 303 303 303 303 303 303 303 303 303 303 305 305 307 305 304 302 300 302 302 303 302 299 301 304 305 304 304 304 303 302 304 304 303 303 302 297 297 298 300 299 299 300 300 300 300 301 301 302 302
300 300 301 303 303 303 303 304 305 305 304 305 305 303 302 302 301 299 298 296 298 298 297 297 297 296 297 297 297 298 298 298 299 300 300 301 301 301 301 301 301 301 300 300 301 301 301 302 303 303 303 302 300 300 300 301 298 299 303 303 300 299 300 301 300 302 302 302 302 301 300 297 296 297 298 297 296 297 298 297 298 299 300 300 301
299 299 300 301 302 302 303 303 303 303 302 301 300 300 300 300 300 299 299 297 296 296 297 296 296 296 295 295 296 296 296 296 297 297 298 298 299 299 299 299 299 299 298 297 297 298 298 299 300 300 301 299 298 296 298 299 298 297 295 297 299 300 297 293 293 301 299 300 299 299 298 296 296 296 298 296 295 296 296 295 296 297 298 299 300
298 298 298 299 300 301 302 302 302 301 300 300 299 299 299 298 298 298 298 297 297 296 295 293 293 293 293 293 293 294 295 294 295 295 295 295 296 296 296 295 295 295 295 294 293 294 295 296 297 297 296 295 296 296 294 295 296 297 295 294 295 293 290 290 290 298 292 298 297 298 297 295 294 295 296 296 296 296 295 295 295 296 298 298 298
296 296 297 298 300 300 301 301 301 300 300 300 300 300 299 298 298 297 295 295 293 293 291 291 291 290 290 292 292 293 293 293 293 293 293 294 293 294 294 293 293 293 293 293 292 292 293 293 294 294 294 295 293 293 292 293 294 295 296 295 293 288 288 290 288 284 291 300 296 295 295 293 293 295 296 294 295 296 294 294 295 296 297 297 297
295 296 296 297 299 299 300 300 300 300 300 300 301 301 300 300 299 297 296 293 291 290 291 291 290 290 291 290 291 291 292 291 292 292 292 292 293 293 293 292 292 292 292 292 291 291 292 293 293 292 292 293 293 290 290 291 292 292 294 294 295 295 294 289 285 287 284 290 292 292 292 293 292 293 294 292 293 294 293 293 294 295 296 297 298
294 295 295 296 297 298 298 298 298 298 298 299 299 299 298 297 296 294 293 292 291 290 290 290 291 290 290 289 289 290 290 291 291 291 291 291 291 291 291 291 291 291 291 291 291 291 292 292 292 293 292 291 291 290 289 289 288 289 291 291 291 293 294 294 292 287 285 282 285 292 293 291 292 291 291 291 292 292 292 292 293 295 295 296 297
294 294 294 295 296 296 297 297 296 296 296 297 297 297 297 296 294 293 291 291 291 290 290 291 290 290 289 289 289 288 289 290 290 290 290 290 290 290 290 290 289 289 290 290 290 290 290 290 290 290 290 290 290 290 290 289 288 288 288 289 290 289 290 291 291 290 285 284 284 285 285 290 292 292 290 291 292 292 292 292 293 294 295 296 296
292 293 294 294 295 295 295 295 294 295 295 295 296 295 295 295 294 292 291 290 290 290 291 290 290 290 289 289 288 288 288 288 289 290 289 290 290 289 289 288 288 288 288 288 289 289 289 289 289 289 290 289 290 289 288 289 289 289 288 288 287 287 287 287 287 286 287 287 283 283 285 284 283 288 291 291 290 291 292 292 292 293 294 294 293
292 293 293 293 294 294 294 293 293 293 294 294 295 295 295 294 293 292 291 291 291 290 289 289 289 289 288 288 288 288 288 287 288 288 289 289 289 289 288 288 288 288 287 287 287 288 288 288 289 289 288 288 288 288 288 288 288 288 287 287 286 286 285 285 284 285 285 283 283 284 285 286 285 284 288 290 290 291 291 292 292 292 294 294 292
Wind_Speed
6 9 11 10 9 10 11 13 13 14 13 13 11 9 7 11 12 12 11 11 11 11 11 9 10 10 10 10 10 10 10 10 10 11 12 12 11 11 12 12 13 14 14 14 14 14 14 14 14 13 13 13 13 12 13 13 13 13 13 13 13 13 12 12 12 11 10 11 12 12 11 11 12 12 12 13 14 15 14 13 10 9 9 11 15
12 10 11 10 6 10 10 12 13 13 13 12 12 9 9 11 10 11 10 10 10 10 10 10 9 10 10 10 10 10 10 10 10 11 11 11 11 11 12 12 13 13 14 13 14 14 14 13 13 13 14 13 13 13 12 12 12 12 12 12 12 12 11 11 10 9 8 8 10 11 11 12 12 11 11 13 13 15 13 14 15 9 8 13 15
12 12 11 12 5 9 9 11 11 14 13 13 11 9 8 10 10 9 9 9 10 9 9 9 10 9 9 10 10 10 10 10 10 10 10 10 11 11 11 12 12 13 13 14 14 14 14 13 13 13 13 12 12 12 12 11 11 11 11 11 10 10 10 9 9 8 6 6 6 11 11 12 11 11 11 12 13 13 13 12 12 12 9 15 14
11 10 11 11 5 7 9 11 12 12 13 13 13 10 10 11 11 10 9 9 9 8 9 9 8 8 9 9 9 9 9 9 9 10 9 9 9 10 10 11 11 12 12 12 14 14 15 14 14 14 13 13 12 11 11 11 10 10 10 10 9 8 8 9 8 7 7 7 4 5 3 6 9 10 11 11 12 13 12 13 13 13 14 14 15
10 10 11 11 10 8 9 9 12 11 11 12 12 12 12 12 11 11 10 10 9 9 8 7 8 8 8 8 8 8 8 8 8 9 9 8 9 9 10 10 11 12 12 13 14 15 14 14 14 14 13 12 11 11 11 10 10 9 9 9 8 7 7 7 6 5 5 6 6 6 5 6 7 10 10 11 11 12 12 12 13 12 12 13 15
8 8 11 11 10 10 8 10 11 12 12 12 12 11 11 11 10 10 10 9 9 8 9 8 8 8 8 8 7 7 8 8 7 8 8 8 8 8 9 10 11 11 12 13 14 14 14 14 14 14 13 12 11 11 10 10 10 9 8 8 7 7 6 5 5 4 6 7 10 1 6 7 5 6 9 10 10 11 11 12 13 13 12 12 13
9 7 8 10 9 10 7 10 11 13 12 12 12 11 11 11 10 9 9 9 8 7 7 8 8 8 8 7 7 7 7 7 7 7 7 7 8 8 9 10 11 11 12 13 14 14 13 13 13 13 13 12 11 11 10 10 9 9 8 8 7 6 6 5 4 6 6 6 2 4 5 5 7 5 8 9 10 10 10 11 13 13 13 13 13
6 7 6 10 9 10 7 9 10 12 12 12 12 12 11 11 10 10 9 10 9 8 7 6 7 7 7 7 7 6 6 6 6 7 7 7 7 8 8 9 9 11 12 12 13 13 12 12 13 13 13 12 11 11 10 10 10 9 8 8 7 6 5 4 5 6 7 3 4 5 4 6 7 4 8 9 9 11 9 9 12 12 12 13 11
6 8 7 7 8 13 8 8 9 10 11 12 13 12 12 11 11 10 10 10 8 8 8 7 8 7 7 7 7 6 6 6 6 6 6 6 7 7 8 9 8 10 10 10 11 11 11 12 12 13 13 13 11 11 10 10 10 9 9 9 8 7 5 4 5 8 8 2 4 6 6 5 6 6 8 9 10 11 13 8 9 10 11 11 10
7 7 8 6 10 10 8 6 7 9 11 11 12 12 12 11 11 11 11 10 9 9 8 8 8 8 8 7 7 6 6 6 6 5 5 6 6 7 8 8 7 9 9 10 12 11 11 12 12 13 13 13 11 11 10 10 9 10 9 9 8 6 5 3 5 9 3 2 5 5 5 6 7 6 8 9 10 12 11 9 8 8 7 9 11
6 6 6 6 13 10 7 6 6 6 9 10 11 11 11 11 10 11 10 10 9 9 8 7 8 8 8 8 7 7 6 6 5 5 5 5 6 7 7 7 7 10 10 11 11 11 12 12 12 13 13 12 11 10 10 10 10 10 10 9 8 6 4 5 9 2 5 5 5 4 2 2 8 6 9 10 10 10 9 9 8 7 9 9 10
5 4 5 9 9 9 7 4 6 5 7 9 10 10 9 11 10 10 10 9 9 9 9 8 7 7 7 7 7 7 6 6 6 5 5 5 5 6 7 7 9 10 11 11 11 12 12 12 13 13 13 12 11 11 11 11 11 10 11 10 9 7 7 9 7 5 3 4 5 4 6 7 8 7 10 9 9 11 10 10 9 9 9 9 9
4 2 3 7 8 7 6 4 4 5 6 7 8 10 9 10 10 9 9 9 9 8 7 8 6 6 6 7 7 6 7 7 6 5 5 5 5 7 8 8 9 10 11 11 11 12 12 12 13 13 13 12 11 11 11 11 11 11 11 11 11 10 9 10 3 4 4 3 4 3 3 3 7 7 8 9 10 10 10 10 10 10 10 9 9
3 3 2 1 6 7 6 4 3 4 4 4 5 8 8 8 9 8 9 8 7 7 6 7 6 6 5 5 4 5 6 7 6 6 5 5 6 7 8 9 10 10 10 9 11 11 11 12 12 13 13 12 11 11 11 11 11 11 11 11 11 11 10 8 6 4 4 4 5 4 4 6 8 8 6 8 9 9 9 9 10 10 9 9 9
5 4 5 1 6 6 6 4 4 4 1 3 3 4 7 8 7 6 7 7 8 5 5 6 6 5 4 4 4 3 5 5 5 5 5 5 6 5 8 8 10 9 8 12 12 11 11 12 12 12 12 11 11 11 11 11 11 11 11 11 11 11 10 5 2 4 3 3 3 2 4 6 12 7 7 8 8 9 9 8 9 9 9 10 9
4 3 2 1 5 4 7 5 3 3 4 3 3 3 3 6 6 5 6 5 6 7 6 5 5 4 3 2 2 4 4 3 4 6 4 4 6 7 6 7 9 9 13 12 11 11 11 11 11 12 12 12 11 11 11 11 12 12 12 12 11 11 12 9 3 2 4 4 3 3 7 8 14 9 6 7 8 9 9 9 9 9 9 9 10
5 3 3 2 2 3 2 7 7 4 1 2 2 3 4 4 6 7 6 6 3 3 4 3 3 3 1 2 4 3 2 3 2 4 5 5 6 5 6 6 7 9 10 11 11 11 11 11 11 11 11 11 11 10 11 11 11 11 11 11 11 10 10 11 3 5 4 4 3 4 9 8 11 9 7 8 8 7 8 9 10 10 10 10 9
5 5 6 6 5 4 2 2 6 8 9 6 4 3 5 5 3 4 6 7 7 6 6 5 5 5 5 5 5 5 3 4 5 3 3 5 5 5 4 4 6 9 10 11 11 12 11 11 10 10 10 10 10 10 10 10 10 10 10 9 8 8 7 10 5 5 4 2 3 6 8 12 13 8 10 8 7 7 7 9 10 10 10 10 9
6 6 5 3 4 5 5 3 3 4 7 8 8 7 7 6 4 4 3 1 4 5 5 7 7 7 7 6 5 5 6 6 5 5 6 6 5 3 3 2 6 8 10 10 11 11 11 10 10 9 9 9 9 9 9 9 9 8 8 7 8 7 10 6 6 4 4 6 4 9 8 15 12 9 8 8 9 10 10 10 10 9 9 9 9
5 6 5 5 2 2 4 4 5 4 4 6 7 6 8 7 6 3 4 4 2 2 5 6 7 8 7 8 7 6 6 7 9 6 7 6 5 1 4 4 3 6 9 10 11 10 10 10 9 8 8 8 9 9 8 8 8 7 6 5 5 8 4 5 5 6 5 5 7 7 11 15 12 11 9 9 10 11 10 10 9 8 8 9 9
3 5 5 4 4 2 3 3 3 7 7 5 5 6 7 7 7 8 7 6 5 3 3 4 6 6 7 6 7 5 5 4 6 4 7 6 7 5 6 5 3 5 6 10 10 9 9 9 8 8 7 8 8 8 9 7 6 6 4 4 7 2 4 4 5 5 5 5 7 7 13 13 14 12 10 9 8 9 10 9 9 8 8 8 8
3 3 5 5 4 3 3 2 2 4 4 5 4 4 4 7 8 8 7 7 6 7 6 6 6 5 4 4 5 5 5 5 4 6 5 6 5 7 4 5 5 6 8 10 10 9 9 9 8 7 7 5 7 4 5 5 5 2 1 5 3 4 4 4 4 4 5 5 7 8 13 13 13 13 11 8 7 8 9 9 8 7 7 8 7
4 4 4 6 5 4 5 4 3 3 5 5 4 4 4 4 5 7 6 7 7 9 8 8 7 6 6 5 5 5 4 4 2 3 2 6 7 6 7 7 7 7 7 9 9 9 9 8 7 6 5 5 3 3 4 2 2 5 5 1 4 3 3 4 3 4 5 6 5 11 12 12 12 12 11 10 8 7 7 8 7 6 6 6 7
5 4 4 4 6 5 6 4 4 3 3 3 4 4 3 3 3 4 5 5 5 5 6 5 5 5 5 4 5 4 3 1 8 8 5 6 6 7 8 8 8 7 9 7 6 5 8 6 6 4 5 1 4 3 3 3 3 3 3 3 3 3 3 3 3 3 3 5 5 9 11 11 11 11 12 12 12 10 7 6 8 7 5 6 6
5 3 5 5 7 6 5 5 5 3 3 2 4 4 2 3 3 3 3 3 2 3 4 4 4 4 4 5 4 3 4 3 3 4 4 4 6 5 5 5 6 7 9 6 6 6 5 5 3 5 2 3 3 4 3 3 4 3 4 4 3 3 2 2 2 2 2 4 4 7 9 10 10 10 10 10 11 11 10 7 6 6 6 5 4
5 5 6 5 6 6 6 5 4 3 2 4 4 4 3 3 2 2 3 3 3 2 1 2 2 2 3 5 4 4 4 3 3 3 3 2 3 4 5 6 6 7 7 6 4 5 3 3 3 1 3 4 3 4 4 4 4 4 4 3 4 3 3 2 2 2 2 3 4 5 6 8 8 9 8 8 9 10 10 10 11 5 6 6 2
5 6 5 5 6 7 6 6 3 2 2 4 4 4 4 2 1 2 1 2 3 2 3 2 3 3 2 2 2 3 3 3 3 2 3 3 3 3 3 3 5 5 5 4 3 3 0 2 3 3 3 3 3 2 4 3 4 4 4 3 3 3 3 2 2 3 2 2 4 5 5 5 6 7 7 7 7 8 9 10 10 9 4 6 6
5 6 6 6 7 8 7 6 3 2 4 5 6 4 3 1 3 2 2 3 1 4 5 6 5 5 5 3 2 1 3 4 4 3 3 3 2 2 2 1 1 1 1 1 2 3 5 4 2 4 2 2 3 1 2 3 3 3 3 3 3 3 3 2 2 3 2 2 4 5 5 7 8 7 8 8 8 7 8 8 9 10 13 15 14
6 7 6 6 7 7 8 5 3 5 5 7 6 4 4 3 5 6 6 7 8 7 7 6 6 6 6 6 6 4 3 3 4 2 4 5 5 4 3 2 2 2 2 1 1 2 4 3 3 1 2 1 2 3 3 3 3 3 2 3 2 2 2 2 2 1 1 1 2 5 6 5 7 9 9 9 9 9 8 9 9 10 12 14 15
6 6 6 6 7 8 8 5 1 5 3 7 5 7 5 8 8 7 6 7 7 6 7 7 6 6 6 7 7 6 5 4 1 1 3 5 4 4 4 4 5 4 2 1 2 2 2 2 2 1 1 1 1 3 1 4 3 2 3 2 2 2 1 1 1 1 1 1 1 4 6 4 3 5 8 10 10 10 10 10 10 11 13 14 15
5 6 5 5 6 7 7 6 6 6 5 6 8 7 6 7 7 6 6 7 6 6 6 6 6 6 7 7 7 7 5 6 5 4 5 6 5 5 4 4 5 4 4 4 5 4 3 2 3 3 3 3 4 3 3 2 3 2 2 2 2 1 2 1 1 1 1 1 1 1 4 6 4 3 5 7 9 11 11 12 12 13 13 13 15
4 5 4 5 6 6 6 7 6 6 7 8 7 6 6 7 8 6 5 6 6 6 7 6 6 6 7 8 7 7 7 6 6 6 5 5 5 5 5 5 5 5 4 4 5 4 3 3 4 3 3 2 2 3 4 4 2 2 1 2 1 2 2 2 2 2 2 2 1 1 1 1 7 5 4 5 7 9 11 12 13 13 13 13 14
3 4 5 6 6 6 5 7 6 6 8 8 7 7 5 7 7 7 5 6 7 7 7 6 6 6 7 8 8 8 7 6 7 6 5 5 5 6 6 5 5 5 4 5 4 3 3 3 3 1 1 1 2 3 2 2 2 2 1 3 1 2 2 2 2 3 3 2 2 2 2 2 2 6 5 4 5 8 10 10 11 12 12 13 14
3 3 5 6 5 4 4 4 6 8 8 7 7 7 7 7 7 7 7 7 6 7 7 7 7 6 7 8 8 8 7 6 6 6 6 6 6 6 6 6 5 5 5 4 4 3 3 3 1 1 3 4 3 4 3 2 3 2 1 2 1 3 2 2 2 2 2 3 3 3 3 3 3 3 3 5 5 7 10 10 10 9 10 11 12
3 4 6 6 6 6 4 4 6 7 8 9 9 8 7 7 7 7 7 7 7 7 7 7 7 7 7 8 9 8 8 7 6 5 5 6 5 6 6 5 5 4 4 4 4 3 4 4 3 3 4 4 4 3 4 4 4 3 2 2 2 3 1 2 2 2 3 3 3 3 3 4 5 5 4 3 6 7 8 10 10 9 10 10 11
5 5 4 4 6 6 6 7 7 9 9 8 8 8 8 9 8 7 7 8 8 8 7 7 6 7 7 7 8 9 9 8 8 7 6 6 6 6 6 5 5 5 5 5 4 4 5 4 5 4 3 4 3 3 3 3 5 6 3 2 2 2 2 2 3 3 3 3 4 4 4 5 5 4 5 5 5 4 7 6 9 11 10 11 12
4 4 4 4 5 5 5 7 8 9 9 10 10 10 9 9 8 8 9 8 8 7 7 6 6 7 7 7 8 8 9 9 8 8 7 7 7 7 6 6 6 6 6 5 5 5 5 4 5 5 5 4 4 3 2 2 3 4 3 1 1 1 2 3 4 3 2 4 5 5 5 5 6 6 5 5 5 6 5 5 6 7 7 8 13
2 3 3 4 4 4 5 6 7 7 7 7 8 8 8 9 8 8 8 9 9 7 6 6 7 7 7 7 8 8 9 9 8 7 7 7 7 6 6 6 6 6 5 6 6 5 5 5 5 4 3 4 4 4 3 2 1 1 2 1 1 1 1 3 3 3 4 4 5 5 5 5 5 5 5 4 5 5 4 7 8 7 3 4 10
2 3 3 3 3 3 5 7 7 7 9 9 9 9 9 9 8 8 9 9 8 7 7 7 7 7 8 8 8 8 8 9 9 8 7 6 7 7 7 7 6 5 5 6 6 6 6 5 4 4 5 6 4 4 3 3 2 2 2 1 0 2 3 4 3 3 3 4 4 4 4 5 4 4 4 4 4 5 5 5 4 4 4 5 7
1 2 3 3 3 4 5 5 5 6 6 7 6 7 7 7 8 7 9 8 7 7 7 8 7 7 8 8 8 9 9 9 9 8 8 7 7 7 8 8 8 7 8 8 7 6 6 6 6 6 6 6 6 5 6 6 4 3 2 2 0 4 5 3 3 4 3 3 4 4 5 5 5 5 5 4 4 4 5 6 5 6 5 7 7
2 2 3 3 3 3 5 5 3 3 4 6 5 6 6 7 7 7 8 6 7 7 8 7 8 8 9 9 10 9 9 10 9 9 8 8 7 7 8 8 8 8 8 8 8 8 7 4 4 6 7 6 7 8 8 7 3 3 3 2 2 7 4 4 7 5 5 4 5 4 5 6 6 6 5 5 6 5 5 5 6 6 6 6 7
2 2 3 3 4 4 4 4 3 4 4 4 4 5 5 5 6 6 7 6 6 7 7 7 8 8 10 10 9 9 10 10 9 9 9 9 8 8 8 8 8 7 8 8 8 8 9 9 6 5 7 7 7 9 9 8 4 5 4 1 4 6 5 5 8 7 5 5 5 5 5 6 7 6 5 5 5 6 5 6 5 6 6 6 6
3 3 3 4 4 4 4 3 4 4 5 5 5 6 6 7 7 7 8 8 8 7 8 8 8 9 9 9 9 9 9 9 10 9 8 8 8 8 8 8 9 8 8 9 9 10 10 10 10 7 5 6 7 8 10 10 6 7 4 3 2 2 3 3 8 6 6 6 5 6 5 6 8 6 4 5 5 5 5 6 6 6 6 6 5
3 3 3 3 3 4 4 4 5 5 6 7 8 9 10 10 10 9 9 8 8 8 9 8 9 9 10 10 9 9 10 9 10 9 9 9 9 9 8 8 8 8 8 8 9 10 10 10 10 10 7 6 6 8 9 10 8 8 5 4 1 3 1 6 9 3 6 6 7 6 5 6 6 6 4 5 6 5 5 6 7 6 6 6 5
3 3 3 3 3 4 5 5 6 6 6 7 9 9 9 10 10 10 10 10 9 8 8 8 8 8 8 9 9 10 10 10 10 10 9 10 9 9 8 8 8 9 8 8 9 9 9 9 10 9 10 7 6 5 7 9 11 10 7 4 3 4 4 5 8 2 9 4 6 5 5 7 6 6 3 4 5 5 5 6 6 5 5 5 5
3 3 3 3 3 4 5 6 6 6 7 8 8 7 7 8 7 7 7 7 7 6 7 7 7 8 8 7 10 10 10 10 10 10 10 9 10 10 9 9 9 8 8 8 8 8 9 10 9 8 9 10 7 7 6 6 8 9 9 7 6 4 4 5 4 3 7 1 3 4 5 6 6 5 3 5 5 4 5 6 6 6 5 5 5
4 3 3 4 4 4 5 5 5 5 4 4 5 6 7 5 6 6 7 7 9 7 7 7 7 7 7 9 8 9 10 10 10 10 10 10 9 9 9 9 8 8 8 8 8 8 7 8 7 8 8 7 7 7 8 7 5 7 7 6 5 4 3 4 4 4 4 2 3 3 3 5 6 5 4 6 5 4 5 6 6 5 5 4 4
4 3 3 3 4 4 5 5 5 5 3 3 3 3 5 6 8 9 8 8 9 9 8 8 7 7 8 8 8 8 9 9 9 10 10 9 9 9 9 8 8 8 7 7 8 7 6 7 8 8 7 7 8 7 6 7 6 6 6 6 5 4 3 3 3 4 4 7 6 1 2 4 3 4 5 6 5 5 6 6 5 4 4 4 3
4 3 3 3 3 4 4 5 5 4 4 4 5 5 6 7 7 8 10 8 9 8 8 7 8 8 9 8 8 8 8 9 9 9 9 9 9 8 9 8 8 8 7 6 7 7 8 8 8 8 7 7 7 7 6 6 6 6 6 6 5 5 3 3 2 3 4 6 6 6 8 2 1 2 4 4 3 4 5 5 5 5 4 3 3
4 4 4 3 3 4 4 5 5 4 4 5 6 7 7 7 8 8 11 10 8 8 7 8 8 7 8 8 7 7 7 7 8 8 9 9 8 8 8 8 8 7 7 7 7 7 7 6 7 7 7 7 6 6 6 5 4 5 5 5 5 5 4 4 4 6 4 3 6 9 8 10 9 3 2 2 5 5 4 4 5 4 4 3 4
4 4 4 4 4 4 5 5 5 4 5 6 6 7 7 7 8 9 10 11 10 9 9 8 7 7 8 7 7 6 6 6 6 7 8 7 8 8 8 7 7 6 6 6 6 5 5 5 5 6 8 7 6 6 6 6 4 4 5 4 4 4 4 4 5 5 5 5 6 6 7 7 8 10 3 4 5 5 4 4 4 4 3 3 4
Wind_Direction
160 167 143 129 155 156 158 151 147 144 141 135 134 139 139 126 123 120 119 117 118 118 119 116 112 108 102 99 92 92 90 78 73 66 62 66 74 84 84 82 88 85 80 75 72 71 68 65 59 54 51 48 44 43 43 42 41 43 44 49 53 53 56 58 58 55 51 66 69 69 66 65 62 58 56 53 51 43 36 32 22 51 46 46 44
149 162 136 142 144 156 161 155 149 142 143 133 134 145 147 130 126 123 123 121 120 121 117 111 104 105 108 107 103 94 85 82 73 65 61 64 69 77 83 84 82 84 84 80 76 72 68 63 58 51 46 43 39 37 38 41 41 41 43 46 50 51 53 53 49 40 41 58 84 75 70 70 64 59 59 56 53 50 43 42 45 46 49 47 46
151 153 139 147 137 151 162 157 150 146 145 142 143 146 141 131 126 122 119 121 120 119 115 114 115 117 112 105 100 96 87 81 76 69 64 64 68 76 83 86 85 84 81 76 74 69 63 62 58 53 48 44 40 35 34 37 39 41 42 43 46 50 52 53 48 33 22 29 68 101 87 69 64 63 58 57 55 49 45 48 53 56 52 48 47
154 158 148 135 136 154 157 159 154 154 150 148 146 153 144 138 131 127 125 122 123 119 121 119 113 112 111 108 103 98 89 83 77 73 69 68 71 76 81 83 81 78 77 75 73 71 65 61 57 55 50 44 42 40 35 35 36 38 40 42 40 41 49 52 47 29 359 6 347 294 70 88 77 63 62 60 57 55 51 47 49 56 58 56 51
154 158 145 149 160 158 157 155 157 152 151 147 149 148 144 140 139 137 135 132 132 130 128 123 122 119 113 113 107 99 92 84 79 75 73 72 74 79 86 88 90 85 79 78 75 74 69 61 55 52 50 46 44 42 39 35 35 35 35 35 37 36 42 49 43 30 345 317 306 288 76 73 77 65 67 64 60 57 54 52 48 44 46 57 53
154 163 145 165 166 156 156 156 157 152 153 152 151 146 145 140 140 140 139 135 136 136 134 132 130 128 121 117 113 105 95 84 79 78 76 75 79 81 87 87 87 89 87 79 76 73 67 59 52 47 45 45 44 44 43 39 36 34 34 33 32 37 47 48 39 4 331 327 300 2 65 70 77 73 68 67 64 58 54 52 49 44 42 43 54
157 167 152 164 165 155 154 157 159 154 155 152 152 150 147 145 143 143 140 136 135 136 135 137 136 131 131 123 120 111 105 98 90 89 82 76 77 84 89 86 85 85 85 81 80 77 67 59 50 43 42 44 44 44 44 43 39 35 34 41 40 43 46 42 2 343 312 291 16 35 65 65 65 83 68 67 64 57 50 58 55 47 44 43 52
142 166 166 158 176 128 152 151 158 154 154 155 153 155 153 151 148 147 147 146 147 145 140 138 134 137 132 128 123 123 115 108 100 93 94 93 93 93 92 84 86 85 85 84 84 76 61 54 50 44 44 43 44 43 44 44 41 38 39 44 53 57 55 33 351 292 288 279 33 38 43 65 87 65 71 65 57 47 46 60 67 57 46 48 41
145 172 162 160 131 131 131 152 153 153 160 161 157 157 158 157 155 154 153 152 150 148 149 151 145 147 139 138 130 132 132 116 105 98 97 99 101 98 99 95 92 87 83 82 75 70 59 53 53 47 44 43 41 41 42 44 44 44 45 48 51 53 39 14 303 299 278 38 46 34 26 52 80 80 66 63 56 48 39 25 52 52 52 43 49
153 161 163 160 131 110 121 150 152 160 160 168 160 157 162 162 161 159 157 154 156 150 154 159 158 153 153 146 143 146 135 121 112 98 92 97 97 109 107 101 83 67 69 63 63 60 54 59 53 48 45 44 39 39 39 41 44 46 49 48 48 58 47 319 289 277 289 25 69 58 35 355 73 61 66 66 60 49 34 38 48 39 43 50 53
139 162 153 141 119 108 107 158 150 154 165 165 164 162 165 166 166 162 161 160 162 155 159 165 162 163 157 159 155 149 146 128 113 110 100 98 103 115 118 92 80 74 68 65 68 69 63 57 53 48 44 44 42 39 38 38 40 41 44 49 51 49 24 316 304 268 28 19 32 45 44 234 68 69 70 63 60 62 58 55 46 50 53 54 51
124 119 170 89 109 102 99 123 158 159 160 171 168 166 173 168 172 166 166 164 165 161 160 168 163 170 167 159 162 158 144 137 132 125 115 111 113 118 109 97 88 76 67 63 66 67 62 55 48 48 45 43 41 40 40 38 38 38 39 40 39 25 354 342 319 49 37 34 49 7 13 41 53 61 70 71 68 62 54 51 46 40 47 53 51
63 104 161 123 129 113 93 99 143 176 169 180 177 172 176 180 173 171 171 170 169 165 166 161 166 172 173 169 169 160 148 151 150 135 127 131 122 127 119 105 90 77 74 72 68 65 62 56 51 48 46 42 41 41 40 41 40 37 34 31 24 12 356 329 339 25 46 29 54 34 21 66 63 30 56 57 52 51 46 44 44 50 50 53 51
63 79 106 139 83 103 78 44 76 150 183 188 193 190 181 194 184 178 173 170 173 165 173 162 171 178 179 172 155 157 162 160 154 135 131 137 139 135 121 108 96 89 88 83 77 71 65 58 53 51 48 43 41 38 40 40 42 39 35 31 19 5 358 307 15 42 32 44 39 14 6 50 30 7 40 49 49 47 43 41 37 44 46 54 56
71 57 31 175 135 144 93 53 16 43 53 207 204 211 192 194 207 184 186 178 170 171 170 163 170 179 180 171 173 167 177 163 150 133 130 127 123 123 121 112 100 98 93 79 80 76 66 60 57 55 53 48 42 40 37 37 37 38 36 30 19 1 353 2 50 67 57 31 51 42 35 47 16 8 36 45 50 45 41 41 34 29 23 26 31
60 71 35 51 8 132 172 139 72 31 30 358 244 194 180 201 209 195 191 200 185 175 171 161 168 177 177 173 158 182 157 182 155 133 112 116 133 137 124 116 109 96 93 92 91 85 79 71 65 59 55 51 46 44 41 38 34 32 31 27 17 6 347 341 42 1 58 51 33 26 53 37 7 6 81 70 53 42 37 35 32 25 24 21 20
63 97 124 113 356 357 197 180 174 129 130 47 343 221 200 187 195 187 193 185 202 191 161 139 137 153 155 127 69 72 70 126 179 132 120 118 129 143 130 126 111 107 104 104 100 95 89 82 74 66 61 57 51 48 47 44 39 34 29 24 15 2 344 334 6 36 40 32 23 358 50 25 354 23 37 57 52 49 39 31 21 17 16 18 14
61 57 48 35 32 357 289 264 172 186 214 183 182 215 205 193 189 197 186 161 174 183 153 126 95 86 91 85 100 79 46 97 104 130 118 110 113 137 139 115 108 107 104 107 107 102 97 89 81 72 66 63 60 55 53 50 45 37 30 17 2 345 332 316 15 34 38 338 36 44 37 1 359 17 32 29 16 16 18 13 12 6 12 15 15
67 59 53 35 26 18 356 308 302 266 218 221 220 189 195 188 185 181 208 131 188 162 157 139 119 109 113 119 117 131 114 105 98 117 120 120 107 109 124 89 122 117 114 113 109 109 106 98 89 83 77 70 66 64 61 59 54 45 30 11 341 338 311 311 32 16 10 33 8 48 18 354 6 14 16 24 31 30 22 15 11 13 18 15 18
67 49 60 61 39 3 1 360 329 302 261 236 225 216 174 185 170 167 133 152 292 198 159 142 126 132 139 144 142 132 145 139 133 137 138 129 139 152 114 96 98 122 124 117 115 115 112 109 101 96 90 85 84 78 66 62 59 50 32 343 333 305 345 29 7 29 21 32 34 40 6 7 12 12 23 26 24 32 19 11 10 12 23 19 18
63 62 40 39 56 35 7 343 341 340 330 303 262 241 147 169 183 169 153 177 193 213 158 139 143 137 148 163 160 201 197 180 165 178 145 163 157 121 131 117 87 136 131 124 125 124 119 114 111 103 106 106 104 97 88 77 66 47 10 331 302 329 37 29 15 33 24 22 42 26 4 12 9 11 17 27 27 29 21 17 14 17 20 15 16
49 43 45 29 19 35 17 317 311 322 328 323 294 242 154 186 214 212 193 172 188 198 173 204 190 186 164 172 221 220 224 219 191 159 183 148 145 141 129 139 151 156 138 138 139 136 128 122 118 120 115 122 162 149 117 109 102 96 341 302 313 39 38 28 30 37 34 20 41 7 6 9 11 15 8 13 22 28 18 16 14 14 18 19 20
46 20 32 25 14 6 9 354 338 319 321 311 307 276 245 221 215 224 209 198 197 196 221 219 223 220 197 217 231 233 222 227 168 110 95 101 131 143 152 153 141 149 141 142 151 142 133 133 127 134 140 170 191 66 66 80 135 185 221 315 48 35 33 39 38 41 56 35 36 6 12 11 8 10 10 6 12 22 20 12 9 13 17 18 20
22 13 17 25 18 2 357 342 350 316 280 309 303 265 243 237 236 200 219 214 214 216 232 239 242 232 225 231 242 244 240 222 105 115 130 155 134 141 136 151 151 154 147 151 149 134 130 125 120 155 191 151 59 55 66 70 46 36 38 30 46 38 39 36 46 48 64 70 41 13 18 17 12 7 3 7 7 359 7 14 13 5 4 12 13
18 349 22 15 12 0 353 343 340 316 246 248 255 268 251 238 216 231 225 224 222 229 235 254 251 254 246 251 252 257 248 244 199 178 209 211 171 150 154 167 171 169 171 165 177 152 178 142 151 220 41 69 57 52 49 56 51 52 48 29 27 28 39 46 45 53 66 86 55 21 23 21 18 13 5 1 3 7 354 356 17 1 350 334 357
16 17 4 8 9 360 353 339 314 297 245 222 220 244 285 234 216 195 212 209 191 203 229 288 288 269 271 274 266 257 253 249 225 228 239 217 230 192 174 179 183 184 187 200 201 169 186 151 184 96 67 47 51 47 38 28 48 49 57 44 31 21 23 28 35 28 46 93 78 45 34 26 22 20 14 6 0 357 358 348 350 1 349 329 305
12 13 3 2 3 359 353 332 310 285 255 220 213 212 224 239 177 54 320 1 357 148 75 47 28 1 326 332 315 292 281 271 269 231 229 233 235 234 225 217 203 203 195 229 236 204 15 11 23 75 75 78 66 68 62 48 40 44 53 57 46 36 32 22 26 9 7 74 100 64 33 27 27 22 19 13 7 359 351 351 350 347 346 324 344
15 8 11 3 1 353 341 342 314 231 197 189 204 186 195 168 56 129 174 42 8 34 40 48 46 49 45 37 17 294 286 294 260 248 264 276 270 226 213 242 253 189 221 324 356 67 57 15 4 71 117 112 95 90 88 77 73 52 62 44 43 52 43 32 36 11 0 357 111 75 35 10 9 12 16 13 10 5 353 353 344 347 352 355 349
16 14 9 7 352 343 329 352 313 167 184 170 180 158 158 144 79 46 47 52 56 45 38 34 35 27 23 18 17 9 335 290 276 309 35 29 16 8 36 33 47 75 116 141 101 76 58 18 34 40 0 109 146 120 107 76 69 66 67 62 42 56 54 50 44 24 18 8 30 100 79 31 12 8 9 9 10 9 0 350 346 337 342 350 352
16 16 12 356 342 334 347 8 339 345 151 175 116 69 53 85 82 67 64 63 64 67 53 43 37 30 26 19 23 13 10 1 39 76 88 69 65 63 48 48 49 30 33 103 148 166 121 66 31 50 58 299 359 90 205 101 84 71 64 78 51 49 74 74 66 31 38 29 24 122 120 109 49 27 16 8 12 10 6 356 347 343 345 346 348
17 17 5 347 328 339 4 7 9 16 41 68 71 74 75 91 85 83 76 87 94 82 72 59 45 37 29 29 27 22 7 17 20 88 93 90 85 75 68 61 60 46 19 39 46 39 62 58 24 35 43 358 28 40 329 88 86 95 91 73 39 51 53 38 39 41 15 29 12 6 144 153 124 85 37 27 19 16 10 5 359 354 350 349 344
16 13 352 332 341 360 14 27 44 47 64 72 67 69 67 74 79 77 64 74 83 80 75 65 56 40 36 34 32 25 21 31 30 31 60 64 64 64 55 52 50 45 40 44 69 70 67 68 53 38 40 24 28 22 351 338 80 58 55 63 64 38 26 18 23 35 30 20 345 357 1 109 155 127 103 50 34 30 19 14 9 3 356 352 351
32 4 348 344 360 0 14 24 47 46 70 73 75 74 65 70 81 72 69 74 78 77 76 73 64 54 38 33 36 33 27 32 30 32 51 57 51 56 57 48 41 39 42 46 50 73 81 71 60 92 105 154 43 30 344 338 358 21 25 33 9 40 36 359 28 20 17 3 6 5 357 359 12 142 144 95 73 48 33 20 13 6 1 360 355
10 12 0 8 6 10 19 29 34 56 60 60 68 72 63 64 68 65 57 60 66 69 70 70 68 65 56 41 33 35 37 36 33 27 36 56 57 56 52 51 48 46 51 58 66 54 62 67 98 125 43 49 52 24 357 337 333 321 10 35 16 28 9 7 24 26 2 19 360 11 359 3 5 13 8 138 86 67 40 21 14 7 4 1 357
13 14 15 6 20 34 33 49 42 54 61 63 60 58 54 61 62 59 57 61 60 57 51 55 56 54 60 57 48 38 36 39 46 52 53 57 60 61 53 46 56 66 63 59 71 66 65 56 39 58 77 47 50 46 4 345 331 325 1 358 33 11 347 20 31 32 28 6 20 22 11 22 9 7 354 357 128 72 40 15 3 3 6 5 1
24 15 19 16 42 41 47 59 59 64 61 63 67 66 63 64 66 64 63 61 65 59 50 47 50 53 55 57 48 52 48 40 38 46 57 59 60 58 56 49 47 52 50 45 59 62 61 55 23 1 91 74 51 47 33 11 349 352 354 348 11 4 359 24 36 44 26 15 30 26 30 31 24 5 356 15 1 66 47 13 357 359 4 8 360
30 16 18 45 49 38 46 68 71 80 80 76 76 76 75 70 68 66 64 59 62 60 53 48 47 52 52 52 45 47 48 49 52 49 53 51 50 51 47 45 45 48 48 45 42 45 61 59 46 37 50 73 56 39 21 358 324 302 280 273 20 344 28 26 42 28 53 38 42 34 42 40 35 17 25 16 16 8 21 9 341 339 353 7 359
28 17 18 55 57 39 49 61 73 76 81 82 82 80 78 78 73 68 63 61 56 54 54 49 47 47 46 45 46 53 46 45 44 54 61 60 62 61 56 51 54 54 52 52 52 45 48 64 63 43 45 64 58 32 12 350 284 277 293 314 11 24 35 56 59 54 51 41 53 47 42 53 42 33 22 21 21 12 3 2 3 354 68 13 3
31 39 44 61 88 79 83 78 85 89 88 88 90 91 89 84 78 73 67 64 58 53 52 53 47 44 41 41 44 51 46 45 46 45 56 59 56 51 47 44 51 56 55 58 57 52 56 59 69 73 60 49 37 22 353 320 292 257 255 325 300 53 60 70 69 58 49 55 58 69 56 46 41 32 21 11 18 4 1 356 356 352 2 26 354
59 78 72 79 77 83 90 94 94 102 105 105 104 98 97 91 89 82 71 65 64 62 54 52 48 45 40 42 44 48 46 44 43 49 51 52 54 48 49 42 42 45 45 42 37 35 38 55 48 49 56 55 34 10 358 337 306 282 239 260 227 91 85 93 76 55 60 58 62 54 52 42 24 19 16 17 18 9 4 358 355 348 345 347 332
89 93 94 77 73 96 106 94 78 103 124 123 115 110 102 95 85 81 82 76 72 69 64 55 52 48 41 43 42 43 43 44 42 45 48 52 53 49 46 45 48 46 47 44 37 33 22 25 68 50 45 44 33 11 357 322 286 333 323 277 115 98 105 97 44 59 58 58 54 55 52 41 22 15 14 21 16 16 11 4 358 350 350 344 340
83 87 87 73 71 83 92 90 78 64 63 74 86 81 73 80 95 89 88 80 75 69 67 54 55 50 46 44 45 42 46 46 43 44 47 48 49 49 46 42 42 47 48 45 38 34 28 22 10 72 52 47 37 11 7 349 28 355 331 2 137 109 103 79 22 74 58 62 68 50 42 44 25 10 17 24 15 14 13 6 354 352 349 346 342
101 84 81 98 97 91 79 77 73 70 65 73 85 84 81 78 89 91 92 85 71 73 74 71 63 58 52 48 47 47 46 48 46 45 46 45 50 53 49 46 44 40 44 39 34 34 27 24 22 15 60 58 49 23 18 17 3 329 264 255 103 153 127 71 15 74 55 56 50 51 43 39 29 6 12 22 11 7 13 3 353 352 351 345 343
113 99 80 83 82 84 82 85 77 72 73 68 81 83 86 87 86 92 89 88 93 85 80 73 66 62 56 49 45 47 49 50 46 49 50 47 47 51 51 47 46 45 46 45 38 36 29 27 26 21 14 56 46 41 28 24 21 359 32 348 317 334 138 36 352 52 37 68 35 39 44 30 21 5 359 21 8 360 6 0 351 350 348 343 343
91 69 46 63 75 80 82 81 81 83 88 95 97 101 100 95 96 98 102 104 97 88 80 68 63 61 61 48 45 45 46 49 46 46 48 49 46 47 51 51 50 46 47 49 45 36 32 29 25 30 23 25 46 54 48 34 31 24 20 13 14 43 42 346 329 122 23 16 29 21 53 27 13 355 353 18 1 349 1 352 345 343 341 341 345
101 62 44 57 83 89 89 90 93 95 100 105 113 115 115 118 123 120 113 105 93 78 69 72 67 61 61 59 53 48 47 49 50 48 48 49 49 47 47 52 51 47 48 50 47 42 32 31 26 29 25 19 34 33 40 55 42 33 38 44 33 41 358 334 20 332 339 355 28 1 34 26 5 342 358 7 351 352 358 345 335 334 336 333 344
94 84 74 75 79 82 87 96 101 98 92 104 118 130 130 127 115 106 103 103 102 87 87 83 83 79 73 66 60 51 49 52 49 50 49 49 50 47 50 51 51 51 46 49 46 43 38 30 26 33 32 26 26 46 33 16 37 38 32 35 40 47 28 17 10 326 329 7 346 341 26 14 357 337 1 355 339 353 350 332 322 323 322 325 330
108 103 91 84 87 87 93 98 98 105 99 103 111 119 114 101 100 101 101 100 102 106 99 92 88 85 79 71 67 59 52 51 53 50 50 49 50 50 48 50 52 50 48 48 45 37 36 33 31 32 37 36 30 35 34 25 25 18 15 24 18 12 26 45 32 4 322 314 319 318 89 347 345 333 349 335 334 346 334 320 308 312 310 312 322
114 110 101 93 88 95 103 104 109 107 102 106 110 109 113 116 113 112 104 102 105 104 105 101 96 91 88 82 76 72 63 55 53 51 48 50 48 49 48 49 47 48 46 50 47 43 39 36 28 30 31 37 38 27 32 31 25 16 0 7 9 9 359 18 22 8 337 320 309 331 321 300 257 258 333 308 326 328 314 305 305 301 295 308 322
115 110 113 114 118 122 117 116 111 109 112 112 108 105 111 117 114 114 115 115 115 112 110 105 101 97 91 89 83 77 71 66 56 51 52 48 47 47 47 47 47 41 41 39 39 41 40 39 38 36 29 38 37 38 35 18 27 21 5 356 8 359 358 357 3 353 329 307 311 321 325 329 329 327 278 289 311 305 288 285 298 301 298 325 331
125 135 128 135 135 135 132 125 112 111 116 113 111 105 103 108 113 117 117 119 118 118 117 111 109 104 99 93 89 83 78 73 69 58 52 51 53 49 49 47 45 43 40 35 33 34 36 38 36 40 39 35 31 32 35 25 13 30 12 9 7 7 350 350 344 345 330 321 317 310 316 318 320 317 311 299 284 270 261 264 274 279 283 319 316